Starlink 30905

operational
NORAD ID: 58356 Int'l Des: 2023-177 Owner: SPXS Country: US Constellation: starlink
LEOCIRCULAR

Starlink 30905について

説明を読み込み中...

リアルタイム位置

3D地球を読み込み中...

次回通過

高度履歴

Altitude vs Time

uPlot chart will show altitude changes over time

軌道要素

1 58356U 23177F 26036.85308507 .00003203 00000-0 25209-3 0 9999
2 58356 43.0018 164.8117 0001208 268.0053 92.0651 15.02531151123360
Epoch: Feb 5, 2026 • Age: 12 hours

現在のステータス

高度 571.3 km
速度 7.58 km/s
衛星直下点 -42.43°S, 175.15°E
打ち上げ日 Nov 18, 2023
運用期間 2.2 years
タイプ internet

技術仕様

分類 Payload
質量 730.00 kg
乾燥質量 700.00 kg
総質量 730.00 kg
長さ 0.30 m
直径 4.10 m
スパン 29.00 m
形状 Box + pan
製造者 SPXS
バスタイプ Starlink V2M
フェーズステータス In Orbit
所有者/国 SPXS/US

大規模コンステレーション

Loading constellations...